Location: Oshawa
(43.9000°N, 78.8670°W)
Time: 05:30:22
(UTC-04:00)

Iridium 98 - Visible Passes

Search period start: 26 April 2018 00:00
Search period end: 06 May 2018 00:00
Orbit: 776 x 779 km, 86.4° (Epoch: 25 April)

Date Brightness Start Highest point End Pass type
(mag) Time Alt. Az. Time Alt. Az. Time Alt. Az.
26 Apr 6.7 03:14:51 28° SE 03:16:48 39° E 03:21:37 10° NNE visible
26 Apr 6.6 04:55:20 19° WSW 04:57:38 26° WNW 05:01:59 10° NNW visible
27 Apr 7.5 02:41:34 18° ESE 02:43:31 22° E 02:47:28 10° NNE visible
27 Apr 5.9 04:22:02 33° SW 04:23:54 46° W 04:28:55 10° N visible
28 Apr 8.1 02:08:20 10° E 02:10:22 12° ENE 02:12:24 10° NE visible
28 Apr 5.4 03:48:45 47° S 03:50:18 83° W 03:55:33 10° N visible
28 Apr 7.6 05:31:05 10° WNW 05:31:53 10° WNW 05:32:41 10° WNW visible
29 Apr 6.0 03:15:25 42° SE 03:16:50 55° E 03:21:55 10° NNE visible
29 Apr 7.1 04:55:54 15° WSW 04:57:56 19° WNW 05:01:35 10° NNW visible
30 Apr 6.9 02:42:06 27° ESE 02:43:28 31° E 02:48:01 10° NNE visible
30 Apr 6.4 04:22:34 27° WSW 04:24:07 32° W 04:28:48 10° NNW visible
01 May 7.6 02:08:45 16° E 02:10:15 18° ENE 02:13:38 10° NE visible
01 May 5.6 03:49:14 46° SW 03:50:26 58° W 03:55:36 10° N visible
02 May 5.5 03:15:53 58° SSE 03:16:53 79° E 03:22:07 10° N visible
02 May 7.4 04:56:21 11° W 04:58:17 13° WNW 05:00:45 10° NW visible
03 May 6.3 02:42:31 39° ESE 02:43:28 44° E 02:48:23 10° NNE visible
03 May 6.8 04:22:59 21° W 04:24:23 23° WNW 04:28:32 10° NNW visible
04 May 7.2 02:09:09 23° E 02:10:10 25° E 02:14:20 10° NNE visible
04 May 6.1 03:49:37 37° WSW 03:50:37 41° W 03:55:33 10° N visible
05 May 7.8 01:35:46 13° E 01:36:59 14° ENE 01:39:36 10° NE visible
05 May 5.4 03:16:15 62° SW 03:17:00 73° W 03:22:14 10° N visible
